Weather Roundup
Issued by NWS

Home | Current Version | Previous Version | Graphics & Text | Print | Product List | Glossary Off
Versions: 1 2 3 4 5 6 7 8 9 10 11 12 13 14 15 16 17 18 19 20 21 22 23 24 25 26 27 28 29 30 31 32 33 34 35 36 37 38 39 40 41 42 43 44 45 46 47 48 49 50

000
NZUS93 KARX 201110
HRRWXR

CURRENT HOURLY OBSERVATIONS ACROSS
MUCH OF THE UPPER MISSISSIPPI VALLEY
NATIONAL WEATHER SERVICE LA CROSSE WI
600 AM CDT WED AUG 20 2014


...SOUTHEAST MINNESOTA...


CITY           SKY/WX    TMP DP  RH WIND       PRES   REMARKS
ROCHESTER      FOG       61  59  93 CALM      29.84S VSB 1/4
ROCHESTER/MAYO FAIR      64  62  93 CALM      29.83F
WINONA         FOG       63  61  94 CALM      29.82S VSB<1/4
AUSTIN         PTCLDY    59  57  94 CALM      29.82F FOG
ALBERT LEA       N/A     61  61 100 CALM      29.81F FOG
DODGE CENTER   FOG       59  57  94 CALM      29.82F VSB 1/4
PRESTON        FOG       59  59 100 CALM      29.83F VSB 3/4
OWATONNA       FOG       61  57  88 CALM      29.82F VSB 3/4
FARIBAULT      MOCLDY    61  55  82 CALM      29.82S HAZE
$$

...ELSEWHERE IN MINNESOTA...


CITY           SKY/WX    TMP DP  RH WIND       PRES   REMARKS
MINNEAPOLIS    PTCLDY    66  64  93 NE6       29.81F
INTNL FALLS    FOG       52  52 100 CALM      29.86R VSB 1/2
DULUTH         CLOUDY    60  58  92 CALM      29.86R
RED WING       CLEAR     61  59  94 CALM      29.81F
REDWOOD FALLS  MOCLDY    63  63 100 SE3       29.80S FOG
MANKATO        PTCLDY    64  61  88 CALM      29.81S
WORTHINGTON    CLOUDY    63   7  11 CALM      29.84R
FAIRMONT       PTCLDY    61  39  44 SW3       29.83R
$$

...SOUTHWEST WISCONSIN...


CITY           SKY/WX    TMP DP  RH WIND       PRES   REMARKS
LA CROSSE      CLEAR     64  61  90 E3        29.81S
PRAIRIE DU CHI PTCLDY    62  60  94 CALM      29.82R
BOSCOBEL       CLOUDY    63  61  93 CALM      29.82S FOG
LONE ROCK      FOG       63  60  90 CALM      29.82S VSB 1/2
PLATTEVILLE    CLEAR     64  61  92 CALM      29.84R
FORT MC COY    FOG       57  57  97 CALM      29.84R VSB 1
CAMP DOUGLAS   FOG       55  55 100 NW2       29.82F VSB 1/4
VIROQUA        FAIR      59  59 100 CALM      29.83S
WIS DELLS      CLEAR     60  58  94 CALM      29.82S FOG
$$

...ELSEWHERE IN WISCONSIN...


CITY           SKY/WX    TMP DP  RH WIND       PRES   REMARKS
MILWAUKEE      PTCLDY    66  61  84 NW6       29.81S
MADISON        PTCLDY    62  60  93 CALM      29.82S
GREEN BAY      MOCLDY    60  60 100 W5        29.81R
EAU CLAIRE     CLEAR     60  60 100 N3        29.84R FOG
BLACK RVR FLS  CLOUDY    58  58 100 CALM      29.83S
MEDFORD        CLOUDY    58  58  99 NW3       29.87R
WAUSAU         CLOUDY    60  58  92 NW7       29.83S
WIS RAPIDS     FOG       60  59  96 CALM      29.84F VSB 1
MARSHFIELD     PTCLDY    58  57  97 N3        29.84R
RICE LAKE      CLOUDY    60  59  96 CALM      29.87R
$$

...NORTHEAST IOWA...


CITY           SKY/WX    TMP DP  RH WIND       PRES   REMARKS
WATERLOO       CLEAR     62  60  93 SW7       29.83R
DUBUQUE        CLEAR     63  61  93 CALM      29.84R
DECORAH        MOCLDY    61  61 100 CALM      29.82S FOG
MASON CITY     CLEAR     59  58  96 CALM      29.84R
CHARLES CITY   CLEAR     61  61 100 CALM      29.81F FOG
OELWEIN        CLEAR     61  61 100 E5        29.83R FOG
$$

...ELSEWHERE IN IOWA...


CITY           SKY/WX    TMP DP  RH WIND       PRES   REMARKS
DES MOINES     CLOUDY    70  68  93 S7        29.81R THUNDER
IOWA CITY      CLEAR     65  63  93 CALM      29.85R
FORT DODGE     MOCLDY    64  63  94 CALM      29.85R
MARSHALLTOWN   PTCLDY    62  60  93 CALM      29.84R
CEDAR RAPIDS   PTCLDY    61  61 100 SE3       29.83R FOG
$$

...NORTHERN ILLINOIS...


CITY           SKY/WX    TMP DP  RH WIND       PRES   REMARKS
CHICAGO-OHARE  PTCLDY    66  60  81 W7        29.83R
DUPAGE         CLEAR     63  61  93 CALM      29.83S
CHICAGO-MIDWAY PTCLDY    69  64  84 W5        29.83R
MOLINE         CLEAR     61  59  93 SW3       29.85R
ROCKFORD       CLOUDY    62  59  90 CALM      29.86R
STERLING       CLEAR     61  59  94 CALM      29.85R
PEORIA         CLEAR     66  62  87 SW3       29.88R
$$

NOTE: "FAIR" INDICATES FEW OR NO CLOUDS BELOW 12,000 FEET WITH NO
SIGNIFICANT WEATHER AND/OR OBSTRUCTIONS TO VISIBILITY. WIND
SPEEDS ARE IN MILES-PER-HOUR.



USA.gov is the U.S. government's official web portal to all federal, state and local government web resources and services.